Weather History for Hatteras, NC

Change the Weather History Date:

Sunday, February 17, 2013

  Actual Average Record
Temperature  
Mean Temperature 36 °F 47 °F  
Max Temperature 38 °F 54 °F 72 °F (1986)
Min Temperature 33 °F 40 °F 16 °F (1958)
Degree Days  
Heating Degree Days 29 18  
Month to date heating degree days 283 319  
Since 1 July heating degree days 1544 1732  
Cooling Degree Days 0 0  
Month to date cooling degree days 0 0  
Year to date cooling degree days 0 0  
Moisture  
Dew Point 21 °F    
Average Humidity 61    
Maximum Humidity 82    
Minimum Humidity 40    
Precipitation  
Precipitation T in 0.14 in 1.85 in (1998)
Month to date precipitation 4.27 2.45  
Year to date precipitation 6.44 7.69  
Snow  
Snow 0.00 in - - ()
Month to date snowfall 0.0  
Since 1 July snowfall 0.0  
Snow Depth 0.00 in    
Sea Level Pressure  
Sea Level Pressure 29.98 in    
Wind  
Wind Speed 16 mph (NW)    
Max Wind Speed 22 mph    
Max Gust Speed 40 mph    
Visibility 10 miles    
Events Rain    
T = Trace of Precipitation, MM = Missing Value Source: NWS Daily Summary

Daily Weather History Graph

Daily Weather History Graph

Search for Another Location

Airport:

Trip Planner

Search our weather history database for the weather conditions in past years. The results will help you decide how hot, cold, wet, or windy it might be!

Date:

Astronomy

Feb. 17, 2013 Rise Set
Actual Time 6:46 AM EST 5:47 PM EST
Civil Twilight 6:20 AM EST 6:12 PM EST
Nautical Twilight 5:50 AM EST 6:42 PM EST
Astronomical Twilight 5:21 AM EST 7:12 PM EST
Moon 10:55 AM EST (2/17) 12:23 AM EST (2/17)
Length of Visible Light 11h 52m
Length of Day
11h 00m
Waxing Crescent, 49% of the Moon is Illuminated
Feb 17
Waxing Crescent
Feb 17
First Quarter
Feb 25
Full
Mar 4
Last Quarter
Mar 11
New

Hourly Weather History & Observations

Time (EST) Temp. Windchill Dew Point Humidity Pressure Visibility Wind Dir Wind Speed Gust Speed Precip Events Conditions
12:24 AM 37.4 °F 29.8 °F 33.8 °F 87% 29.76 in 10.0 mi NNW 11.5 mph 28.8 mph 0.00 in   Overcast
12:51 AM 37.0 °F 27.7 °F 34.0 °F 89% 29.78 in 10.0 mi NW 16.1 mph 26.5 mph 0.00 in Rain Light Rain
1:18 AM 37.4 °F 29.3 °F 33.8 °F 87% 29.78 in 10.0 mi NW 12.7 mph 31.1 mph 0.00 in   Overcast
1:43 AM 35.6 °F 25.5 °F 32.0 °F 87% 29.79 in 10.0 mi NNW 17.3 mph 28.8 mph 0.00 in   Overcast
1:51 AM 37.0 °F 27.7 °F 32.0 °F 82% 29.78 in 10.0 mi NW 16.1 mph 31.1 mph 0.00 in   Overcast
2:51 AM 36.0 °F 26.0 °F 30.9 °F 82% 29.79 in 10.0 mi NNW 17.3 mph 29.9 mph N/A   Overcast
3:51 AM 36.0 °F 26.0 °F 28.0 °F 73% 29.83 in 10.0 mi NW 17.3 mph 32.2 mph N/A   Overcast
4:38 AM 33.8 °F 22.8 °F 24.8 °F 70% 29.85 in 10.0 mi NW 18.4 mph 29.9 mph N/A   Scattered Clouds
4:51 AM 34.0 °F 22.7 °F 25.0 °F 70% 29.86 in 10.0 mi NW 19.6 mph 31.1 mph N/A   Scattered Clouds
5:51 AM 34.0 °F 23.0 °F 21.0 °F 59% 29.88 in 10.0 mi NW 18.4 mph 33.4 mph N/A   Clear
6:51 AM 34.0 °F 23.0 °F 21.9 °F 61% 29.91 in 10.0 mi NW 18.4 mph 29.9 mph N/A   Partly Cloudy
7:51 AM 34.0 °F 23.0 °F 21.0 °F 59% 29.95 in 10.0 mi NW 18.4 mph 28.8 mph N/A   Partly Cloudy
8:51 AM 35.1 °F 25.2 °F 21.9 °F 59% 29.98 in 10.0 mi NW 16.1 mph 27.6 mph N/A   Partly Cloudy
9:51 AM 35.1 °F 25.9 °F 23.0 °F 61% 29.99 in 10.0 mi NW 13.8 mph 29.9 mph N/A   Scattered Clouds
10:51 AM 35.1 °F 25.2 °F 19.9 °F 54% 30.01 in 10.0 mi NW 16.1 mph 29.9 mph N/A   Scattered Clouds
11:51 AM 36.0 °F 26.0 °F 17.1 °F 46% 30.03 in 10.0 mi WNW 17.3 mph 27.6 mph N/A   Scattered Clouds
12:51 PM 34.0 °F 24.6 °F 15.1 °F 46% 30.03 in 10.0 mi WNW 13.8 mph 27.6 mph N/A   Overcast
1:51 PM 34.0 °F 24.2 °F 16.0 °F 48% 30.04 in 10.0 mi WNW 15.0 mph 28.8 mph N/A   Mostly Cloudy
2:51 PM 35.1 °F 25.2 °F 14.0 °F 42% 30.04 in 10.0 mi WNW 16.1 mph 32.2 mph N/A   Partly Cloudy
3:51 PM 35.1 °F 25.2 °F 16.0 °F 46% 30.06 in 10.0 mi NW 16.1 mph 28.8 mph N/A   Partly Cloudy
4:51 PM 35.1 °F 24.5 °F 14.0 °F 42% 30.09 in 10.0 mi WNW 18.4 mph 28.8 mph N/A   Mostly Cloudy
5:51 PM 33.1 °F 21.5 °F 15.1 °F 48% 30.11 in 10.0 mi NW 19.6 mph 31.1 mph N/A   Clear
6:51 PM 33.1 °F 21.9 °F 14.0 °F 46% 30.15 in 10.0 mi NW 18.4 mph 28.8 mph N/A   Clear
7:51 PM 34.0 °F 25.0 °F 12.9 °F 42% 30.18 in 10.0 mi NW 12.7 mph 29.9 mph N/A   Clear
8:51 PM 33.1 °F 23.9 °F 14.0 °F 46% 30.20 in 10.0 mi NW 12.7 mph 24.2 mph N/A   Clear
9:51 PM 33.1 °F 24.4 °F 12.9 °F 43% 30.22 in 10.0 mi NW 11.5 mph 23.0 mph N/A   Clear
10:51 PM 33.1 °F 23.9 °F 12.0 °F 42% 30.23 in 10.0 mi NW 12.7 mph 26.5 mph N/A   Clear
11:51 PM 33.1 °F 23.0 °F 10.9 °F 40% 30.25 in 10.0 mi NW 15.0 mph 21.9 mph N/A   Clear